Flag for Guyana Weather past 2 weeks in Linden, Guyana

Now
75 °F

Clear.


Feels Like: 74 °F
Forecast: 75 / 88 °F
Wind: No wind

Location: Georgetown/Cheddi Jagan International Airport

Current Time: Sep 17, 2014 at 12:31:23 AM

Latest Report: Sep 17, 2014 at 12:00 AM


Visibility: 10 mi

Pressure: 29.89 "Hg

Humidity: 94%

Dew point: 73 °F

Location of LindenLocation

Historic Weather in Linden — Graph

°F

Linden temperature yesterday

Maximum temperature yesterday: 90 °F (at 11:00 AM)
Minimum temperature yesterday: 73 °F (at 4:00 AM)
Average temperature yesterday: 80 °F

Past Weeks' High & Low Weather Summary

 TemperatureHumidityPressure
High93 °F (Sep 3, 2:00 PM)100% (Sep 1, 11:00 PM)29.98 "Hg (Sep 1, 11:00 PM)
Low72 °F (Sep 2, 5:00 AM)47% (Sep 11, 2:00 PM)29.77 "Hg (Sep 11, 4:00 PM)
Average81 °F82%29.89 "Hg
* Reported Sep 1 11:00 PM — Sep 16 11:00 PM, Linden, Weather by CustomWeather, © 2014

Note: Actual official high and low records may vary slightly from our data, if they occured in-between our weather recording intervals... More about our weather records

Advertising

Linden weather history for previous 24 hours

 ConditionsComfort  
Time TempWeatherWind HumidityBarometerVisibility
11:00 PM
Sep 16
75 °FClear.No wind100%29.92 "Hg10 mi
10:00 PM75 °FClear.No wind100%29.92 "Hg10 mi
9:00 PM77 °FClear.No wind94%29.89 "Hg10 mi
8:00 PM77 °FClear.5 mph94%29.89 "Hg10 mi
7:00 PM79 °FPassing clouds.5 mph89%29.86 "HgN/A
6:00 PM82 °FPassing clouds.9 mph79%29.86 "HgN/A
5:00 PM86 °FBroken clouds.9 mph70%29.83 "HgN/A
4:00 PM82 °FBroken clouds.9 mph84%29.83 "HgN/A
3:00 PM81 °FThunderstorms. Partly sunny.14 mph84%29.86 "Hg5 mi
2:00 PM86 °FThunderstorms. Partly sunny.14 mph66%29.86 "Hg6 mi
1:00 PM90 °FThunderstorms. Partly sunny.18 mph59%29.86 "HgN/A
12:00 PM90 °FPartly sunny.18 mph67%29.89 "HgN/A
11:00 AM90 °FPartly sunny.21 mph63%29.92 "HgN/A
10:00 AM86 °FPartly sunny.9 mph70%29.95 "HgN/A
9:00 AM86 °FPartly sunny.5 mph75%29.98 "HgN/A
8:00 AM81 °FPartly sunny.5 mph89%29.95 "HgN/A
7:00 AM77 °FPartly sunny.5 mph94%29.95 "HgN/A
6:00 AM75 °FBroken clouds.No wind100%29.92 "HgN/A
5:00 AM73 °FPartly cloudy.No wind94%29.92 "HgN/A
4:00 AM73 °FRain showers. Passing clouds.5 mph100%29.89 "Hg4 mi
2:00 AM75 °FPassing clouds.No wind94%29.89 "HgN/A
1:00 AM75 °FPassing clouds.5 mph94%29.92 "HgN/A
12:00 AM77 °FPartly cloudy.No wind89%29.92 "HgN/A
Weather by CustomWeather, © 2014

See weather overviewHow to use our weather pages